Location: Newark
(49.1147°N, 0.4158°E)
Time: 07:12:20
(UTC+00:00)

ISS - Visible Passes

Search period start: 22 October 2019 00:00
Search period end: 01 November 2019 00:00
Orbit: 411 x 421 km, 51.6° (Epoch: 22 October)

Date Brightness Start Highest point End Pass type
(mag) Time Alt. Az. Time Alt. Az. Time Alt. Az.
23 Oct -0.4 05:38:06 10° SSE 05:39:01 11° SE 05:39:56 10° ESE visible
25 Oct -1.4 05:35:25 10° SSW 05:38:11 24° SE 05:40:57 10° E visible
26 Oct -1.0 04:47:38 10° S 04:49:45 16° SE 04:51:53 10° E visible
27 Oct -0.7 04:01:18 10° SE 04:01:23 10° SE 04:01:26 10° SE visible
27 Oct -2.9 05:34:11 10° SW 05:37:27 49° SSE 05:40:44 10° ENE visible
28 Oct -2.3 04:47:33 23° S 04:48:55 33° SE 04:51:59 10° E visible
29 Oct -1.3 04:01:15 20° ESE 04:01:15 20° ESE 04:03:07 10° E visible
29 Oct -3.8 05:34:10 15° WSW 05:36:51 90° S 05:40:13 10° ENE visible
30 Oct -3.6 04:47:45 57° SSW 04:48:12 66° SSE 04:51:34 10° ENE visible
31 Oct -1.4 04:01:14 24° E 04:01:14 24° E 04:02:51 10° ENE visible
31 Oct -3.6 05:34:08 20° W 05:36:18 61° NNW 05:39:39 10° ENE visible
